Location: Middelsbur
(53.6609°N, 7.5020°E)
Time: 23:36:38
(UTC+00:00)

Cosmos 304 Rocket - Pass Details

Date: 06 July 2020
Orbit: 679 x 688 km, 74.0° (Epoch: 14 August)

Event Time Altitude Azimuth Distance (km) Brightness Sun altitude
Rises 23:24:37 0° 332° (NNW) 3,071 8.4 -13.7°
Reaches altitude 10° 23:26:56 10° 331° (NNW) 2,150 7.4 -13.8°
Maximum altitude 23:31:46 73° 247° (WSW) 726 3.8 -13.8°
Enters shadow 23:35:01 21° 166° (SSE) 1,547 5.0 -13.8°
